Regional Weather Roundup
Issued by NWS

Home | Current Version | Previous Version | Text Only | Print | Product List | Glossary Off
Versions: 1 2 3 4 5 6 7 8 9 10 11 12 13 14 15 16 17 18 19 20 21 22 23 24 25 26 27 28 29 30 31 32 33 34 35 36 37 38 39 40 41 42 43 44 45 46 47 48 49 50

963
ASUS44 KLIX 230210
RWRLA
LOUISIANA WEATHER ROUNDUP
NATIONAL WEATHER SERVICE NEW ORLEANS LA
900 PM CDT FRI AUG 22 2014

NOTE: "FAIR" INDICATES FEW OR NO CLOUDS BELOW 12,000 FEET WITH NO
      SIGNIFICANT WEATHER AND/OR OBSTRUCTIONS TO VISIBILITY.
      SKY/WX - SKY CONDITION AND SIGNIFICANT WEATHER.
      TMP - AIR TEMPERATURE.    DP   - DEWPOINT TEMPERATURE.
      RH  - RELATIVE HUMIDITY.  PRES - PRESSURE.
      HX  - HEAT INDEX.         WCI  - WIND CHILL INDEX.

*  THESE STATIONS ARE NOT NWS OR FAA STATIONS AND ARE NOT UNDER
   NWS QUALITY CONTROL.

LAZ040-048-061>063-065-066-069-230300-
SOUTHEAST LOUISIANA

CITY           SKY/WX    TMP DP  RH WIND       PRES   REMARKS
N.O. AUDUBON     N/A     87  75  66 MISG        N/A  HX  96
N.O. INTL ARPT PTCLDY    84  69  60 W3        30.02R
N.O. LAKEFRONT CLEAR     87  71  58 S6        30.02S
N.O. DOWNTOWN* FAIR      91  70  49 S5        30.03R HX  97
SLIDELL        CLEAR     82  76  81 CALM      30.01S
BATON ROUGE    CLEAR     82  77  84 CALM      30.02S
BOOTHVILLE     CLEAR     84  74  71 SE3       30.03S
BELLE CHASSE   PTCLDY    80  74  81 CALM      30.02R
BOGALUSA*      FAIR      82  77  84 CALM      30.03R
GALLIANO*      NOT AVBL
NEW ROADS*     FAIR      81  78  89 CALM      30.02S
GONZALES*      FAIR      80  80 100 CALM      30.02R
HAMMOND*       CLEAR     84  75  74 CALM      30.03S
HOUMA*         CLEAR     83  75  76 CALM      30.03S
PORT FOURCHON* CLEAR     88  73  62 S6        30.05R HX  96

$$

LAZ041-044-053-054-230300-
SOUTHWEST LOUISIANA

CITY           SKY/WX    TMP DP  RH WIND       PRES   REMARKS
LAKE CHARLES   PTCLDY    82  76  81 CALM      30.02S
LAFAYETTE      PTCLDY    84  76  76 W5        30.03S
PATTERSON      MOCLDY    81  77  89 CALM      30.07R
SALT POINT       N/A     86  79  79 CALM      30.03R HX  99
NEW IBERIA     PTCLDY    84  76  76 W3        30.04R
CHENAULT AIRPK NOT AVBL

$$

LAZ027-028-230300-
CENTRAL LOUISIANA

CITY           SKY/WX    TMP DP  RH WIND       PRES   REMARKS
FORT POLK      CLEAR     80  74  81 CALM      30.03R
ALEXANDRIA INT CLEAR     80  75  84 CALM      30.00R
ALEXANDRIA     CLEAR     79  76  90 CALM      30.02S

$$

LAZ001-002-230300-
NORTHWEST LOUISIANA

CITY           SKY/WX    TMP DP  RH WIND       PRES   REMARKS
SHREVEPORT     CLEAR     84  71  65 S7        29.99R
BARKSDALE AFB  CLEAR     80  72  75 SE7       30.00R
DTN SHREVEPORT CLEAR     88  70  55 S7        29.99R

$$

LAZ014-016-230300-
NORTHEAST LOUISIANA

CITY           SKY/WX    TMP DP  RH WIND       PRES   REMARKS
MONROE         CLEAR     79  73  82 CALM      30.02R
TALLULAH       CLEAR     80  76  87 S3        30.02R

$$




USA.gov is the U.S. government's official web portal to all federal, state and local government web resources and services.